Погода в Иванкове

Россия / Рязанская область     54°30′24″N   40°50′37″E
темп.,
°C
ветер,
м/с
пор.,
м/с
влажн.,
%
обл.,
%
осадки,
мм/ч
давл.,
гПа
погр.,
м
18 мая, вт
вт1800:00+17вюв4127837 0.0 1012179
03:00+16вюв4136841 0.0 1011231
06:00+16вюв4146810 0.0 1011235
09:00+22юв5136120 0.0 1011435
12:00+26вюв6105230 0.0 1011850
15:00+27вюв695027 0.0 1009948
18:00+24вюв714626 0.0 1009549
21:00+20вюв616710 0.0 1008393
19 мая, ср
ср1900:00+20вюв618602 0.0 1008484
03:00+17юв511675 0.0 1008268
06:00+16вюв4108194 0.0 1009229
09:00+21ююв4672100 0.0 1009614
12:00+23вюв4661100 0.0 10091081
15:00+25юв5105799 0.0 10081482
18:00+24вюв4106812 0.0 1007523
21:00+19в4108243 0.1 1006194
20 мая, чт
чт2000:00+17юв349299 2.3 100766
03:00+16ю3694100 3.9 1007167
06:00+16юв4109390 0.7 1008576
09:00+16ю587855 0.7 1008684
12:00+19ююв696395 0.1 10081691
15:00+19ююв71065100 0.6 10081377
18:00+17ююв5980100 0.3 1008728
21:00+13ююв3793100 0.3 1008153
21 мая, пт
пт2100:00+12ю35934 0.0 100883
03:00+12юз3690100 0.0 1008215
06:00+13ююз5990100 0.3 1009360
09:00+13юз6990100 1.1 1011616
12:00+14зюз588278 0.8 10131032
15:00+17зюз6867100 1.1 10141570
18:00+15юз358093 0.1 1016536
21:00+13зюз1184100 0.2 101711
22 мая, сб
сб2200:00+12юв2285100 0.0 101743
03:00+12в2394100 0.7 101784
06:00+11с2399100 13.9 1018158
09:00+12св5998100 23.8 1017455
12:00+12св5997100 4.4 1016447
15:00+12ссв5696100 5.1 1016342
18:00+14с469299 0.0 1017498
21:00+12св4893100 0.0 1017412